TimeEDT,TemperatureF,Dew PointF,Humidity,Sea Level PressureIn,VisibilityMPH,Wind Direction,Wind SpeedMPH,Gust SpeedMPH,PrecipitationIn,Events,Conditions,WindDirDegrees,DateUTC
12:19 AM,48.2,48.2,100,29.56,1.5,Calm,Calm,-,N/A,,Mostly Cloudy,0,2012-10-31 04:19:00
12:26 AM,48.2,48.2,100,29.56,1.0,Calm,Calm,-,N/A,,Mostly Cloudy,0,2012-10-31 04:26:00
12:37 AM,50.0,50.0,100,29.56,2.0,Calm,Calm,-,N/A,,Mostly Cloudy,0,2012-10-31 04:37:00
12:51 AM,50.0,50.0,100,29.55,1.8,NE,3.5,-,N/A,,Mostly Cloudy,50,2012-10-31 04:51:00
12:56 AM,50.0,50.0,100,29.55,3.0,ENE,3.5,-,N/A,,Mostly Cloudy,60,2012-10-31 04:56:00
1:05 AM,50.0,50.0,100,29.54,2.0,Calm,Calm,-,N/A,,Mostly Cloudy,0,2012-10-31 05:05:00
1:07 AM,48.2,48.2,100,29.53,1.2,Calm,Calm,-,N/A,,Mostly Cloudy,0,2012-10-31 05:07:00
1:15 AM,50.0,50.0,100,29.53,0.5,Calm,Calm,-,N/A,Fog,Fog,0,2012-10-31 05:15:00
1:21 AM,50.0,50.0,100,29.53,1.5,ENE,3.5,-,N/A,,Scattered Clouds,70,2012-10-31 05:21:00
1:24 AM,50.0,50.0,100,29.53,3.0,Calm,Calm,-,N/A,,Scattered Clouds,0,2012-10-31 05:24:00
1:51 AM,48.9,48.9,100,29.52,5.0,WSW,3.5,-,N/A,,Partly Cloudy,250,2012-10-31 05:51:00
1:57 AM,48.2,48.2,100,29.52,1.2,Calm,Calm,-,N/A,,Partly Cloudy,0,2012-10-31 05:57:00
2:03 AM,48.2,48.2,100,29.52,0.2,Calm,Calm,-,N/A,Fog,Fog,0,2012-10-31 06:03:00
2:10 AM,48.2,48.2,100,29.52,0.2,ENE,4.6,-,N/A,Fog,Fog,70,2012-10-31 06:10:00
2:25 AM,48.2,48.2,100,29.52,0.5,Calm,Calm,-,N/A,Fog,Fog,0,2012-10-31 06:25:00
2:51 AM,48.9,48.9,100,29.52,0.8,WSW,3.5,-,N/A,,Overcast,250,2012-10-31 06:51:00
2:58 AM,50.0,50.0,100,29.52,0.5,West,3.5,-,N/A,Fog,Fog,270,2012-10-31 06:58:00
3:05 AM,50.0,50.0,100,29.51,0.2,Calm,Calm,-,N/A,Fog,Fog,0,2012-10-31 07:05:00
3:51 AM,50.0,50.0,100,29.51,0.2,Calm,Calm,-,0.00,Fog,Fog,0,2012-10-31 07:51:00
4:22 AM,50.0,50.0,100,29.50,0.5,Calm,Calm,-,0.00,Fog,Fog,0,2012-10-31 08:22:00
4:32 AM,50.0,50.0,100,29.50,0.5,Calm,Calm,-,0.00,Fog,Fog,0,2012-10-31 08:32:00
4:51 AM,50.0,50.0,100,29.49,1.0,Calm,Calm,-,0.00,,Overcast,0,2012-10-31 08:51:00
5:01 AM,50.0,50.0,100,29.49,2.0,Calm,Calm,-,N/A,,Overcast,0,2012-10-31 09:01:00
5:11 AM,50.0,50.0,100,29.48,5.0,Calm,Calm,-,N/A,,Overcast,0,2012-10-31 09:11:00
5:51 AM,51.1,51.1,100,29.47,5.0,Calm,Calm,-,N/A,,Overcast,0,2012-10-31 09:51:00
6:24 AM,55.4,55.4,100,29.47,10.0,ESE,8.1,-,N/A,,Overcast,110,2012-10-31 10:24:00
6:47 AM,55.4,55.4,100,29.46,9.0,ESE,10.4,-,N/A,,Overcast,110,2012-10-31 10:47:00
6:51 AM,55.0,55.0,100,29.47,10.0,ESE,8.1,-,N/A,,Overcast,110,2012-10-31 10:51:00
7:51 AM,55.9,55.0,97,29.47,10.0,SE,9.2,-,N/A,,Overcast,130,2012-10-31 11:51:00
8:51 AM,55.9,54.0,93,29.49,10.0,South,10.4,19.6,N/A,,Overcast,170,2012-10-31 12:51:00
9:20 AM,55.4,53.6,94,29.50,10.0,South,9.2,-,N/A,,Overcast,170,2012-10-31 13:20:00
9:51 AM,57.0,51.1,81,29.51,10.0,South,9.2,-,N/A,,Mostly Cloudy,190,2012-10-31 13:51:00
10:51 AM,55.9,48.0,75,29.52,10.0,South,8.1,-,N/A,,Mostly Cloudy,180,2012-10-31 14:51:00
11:51 AM,55.0,46.9,74,29.53,10.0,South,10.4,-,N/A,,Overcast,170,2012-10-31 15:51:00
12:51 PM,55.0,46.9,74,29.52,10.0,South,10.4,17.3,N/A,,Overcast,180,2012-10-31 16:51:00
1:51 PM,53.1,45.0,74,29.52,10.0,South,8.1,-,0.00,Rain,Light Rain,190,2012-10-31 17:51:00
2:51 PM,55.0,43.0,64,29.50,10.0,South,8.1,-,0.00,,Overcast,170,2012-10-31 18:51:00
3:51 PM,54.0,43.0,66,29.51,10.0,SSE,4.6,-,N/A,,Overcast,160,2012-10-31 19:51:00
4:34 PM,53.6,44.6,72,29.51,10.0,South,6.9,-,0.00,Rain,Light Rain,190,2012-10-31 20:34:00
4:51 PM,51.1,45.0,80,29.52,10.0,South,9.2,-,0.00,Rain,Light Rain,180,2012-10-31 20:51:00
5:09 PM,51.8,44.6,76,29.51,10.0,SSE,3.5,-,0.00,,Overcast,150,2012-10-31 21:09:00
5:51 PM,48.9,45.0,86,29.51,10.0,South,4.6,-,0.00,,Scattered Clouds,180,2012-10-31 21:51:00
6:51 PM,50.0,44.1,80,29.53,10.0,South,4.6,-,N/A,,Overcast,170,2012-10-31 22:51:00
7:51 PM,50.0,43.0,77,29.53,10.0,South,8.1,-,N/A,,Overcast,180,2012-10-31 23:51:00
8:51 PM,48.9,42.1,77,29.54,10.0,South,5.8,-,N/A,,Scattered Clouds,180,2012-11-01 00:51:00
9:51 PM,46.9,42.1,83,29.54,10.0,South,5.8,-,N/A,,Scattered Clouds,170,2012-11-01 01:51:00
10:51 PM,46.9,42.1,83,29.54,10.0,South,4.6,-,N/A,,Overcast,190,2012-11-01 02:51:00
11:51 PM,46.9,42.1,83,29.54,10.0,South,5.8,-,N/A,,Overcast,190,2012-11-01 03:51:00